ZHONGXING-26

Last updated on Thu Sep 10 2026 00:03:01 GMT+0000 (Coordinated Universal Time)

1 55686U 23023A 26252.61036174 -.00000375 00000+0 00000+0 0 9999 2 55686 0.0574 72.6920 0002424 52.5223 208.2733 1.00270092 13072
UTC large
Height (km)
Speed (km/s)
/
Latitude / Longitude
Inclination (degrees)
Orbital Period (minutes)
Azimuth
Elevation
Range (km)
Doppler Factor

Next 0 passes for location: London (51.5072 / 0.1276)

No passes found over London.
ZHONGXING-26